Regional Weather Roundup
Issued by NWS Charleston, WV

Home | Current Version | Previous Version | Graphics & Text | Print | Product List | Glossary On
Versions: 1 2 3 4 5 6 7 8 9 10 11 12 13 14 15 16 17 18 19 20 21 22 23 24 25 26 27 28 29 30 31 32 33 34 35 36 37 38 39 40 41 42 43 44 45 46 47 48 49 50
125
ASUS41 KRLX 252310
RWRRLX
West Virginia Regional Weather Roundup
National Weather Service Charleston WV
700 PM EDT MON SEP 25 2017

Note: "fair" indicates few or no clouds below 12,000 feet with no
significant weather and/or obstructions to visibility.

WVZ003-260000-
Northern Panhandle of West Virginia

CITY           SKY/WX    TMP DP  RH WIND       PRES   REMARKS
WHEELING       CLEAR     81  62  52 CALM      30.03S
$$

WVZ009-260000-
Northwest West Virginia

CITY           SKY/WX    TMP DP  RH WIND       PRES   REMARKS
PARKERSBURG    CLEAR     82  64  54 CALM      30.03S
$$

WVZ006-260000-
Western West Virginia

CITY           SKY/WX    TMP DP  RH WIND       PRES   REMARKS
HUNTINGTON     PTCLDY    82  62  50 E3        29.99F
$$

WVZ015-260000-
West Central West Virginia

CITY           SKY/WX    TMP DP  RH WIND       PRES   REMARKS
CHARLESTON     MOCLDY    82  61  48 CALM      30.00S
$$

WVZ022-031-260000-
North Central West Virginia

CITY           SKY/WX    TMP DP  RH WIND       PRES   REMARKS
CLARKSBURG     CLEAR     80  62  54 E3        30.03S
MORGANTOWN     MOCLDY    81  65  58 N3        30.04F
$$

WVZ025-035-042-045-260000-
Southern West Virginia

CITY           SKY/WX    TMP DP  RH WIND       PRES   REMARKS
BECKLEY        PTCLDY    76  57  51 CALM      30.09S
LOGAN            N/A     81  64  57 CALM      30.03S
BLUEFIELD      CLEAR     72  57  59 NE5       30.11S
LEWISBURG      CLOUDY    74  61  62 CALM      30.08S
$$

WVZ047-260000-
Northern Mountains of West Virginia

CITY           SKY/WX    TMP DP  RH WIND       PRES   REMARKS
ELKINS         PTCLDY    77  64  64 CALM      30.08S
$$

WVZ052-260000-
Eastern Panhandle of West Virginia

CITY           SKY/WX    TMP DP  RH WIND       PRES   REMARKS
MARTINSBURG    MOCLDY    80  68  66 CALM      30.00S
PETERSBURG     MOCLDY    81  70  68 W3        30.02S
$$




USA.gov is the U.S. government's official web portal to all federal, state and local government web resources and services.